FW6229 Weather Reports


time (UTC)temp
C
wind
direction
speed
KPH
gust
KPH
rain 1hr
cm
rain 24hr
cm
rain mn
cm
humidity
%
barometer
mb
20260506121502 15 95 0.0 0.0 0.00 0.00 0.00 66 1013.6
20260506120003 15 142 0.0 0.0 0.00 0.00 0.00 66 1013.6
20260506114503 15 53 0.0 6.4 0.00 0.00 0.00 65 1013.5
20260506113003 15 115 0.0 0.0 0.00 0.00 0.00 63 1013.4
20260506111502 15 24 0.0 0.0 0.00 0.00 0.00 64 1013.2
20260506110003 16 123 0.0 1.6 0.00 0.00 0.00 64 1013.3
20260506104503 16 69 0.0 1.6 0.00 0.00 0.00 63 1013.1
20260506103003 16 107 0.0 0.0 0.00 0.00 0.00 62 1012.9
20260506101504 16 88 0.0 0.0 0.00 0.00 0.00 61 1012.7
20260506100004 16 136 0.0 0.0 0.00 0.00 0.00 60 1012.6
20260506094503 17 110 0.0 0.0 0.00 0.00 0.00 57 1012.5
20260506093004 17 78 0.0 3.2 0.00 0.00 0.00 56 1012.4
20260506090003 18 132 0.0 9.7 0.00 0.00 0.00 54 1012.4
20260506083003 18 157 0.0 14.5 0.00 0.00 0.00 54 1012.1
20260506081503 18 147 0.0 4.8 0.00 0.00 0.00 51 1012.0
20260506073002 19 132 0.0 0.0 0.00 0.00 0.00 49 1011.6
20260506071502 19 202 0.0 0.0 0.00 0.00 0.00 50 1011.4
20260506061505 19 161 0.0 0.0 0.00 0.00 0.00 48 1010.9
20260506044504 20 71 0.0 0.0 0.00 0.00 0.00 42 1009.7
20260506040004 22 117 0.0 0.0 0.00 0.00 0.00 37 1009.0
20260506034504 23 117 0.0 0.0 0.00 0.00 0.00 36 1008.9
20260506033005 23 86 0.0 0.0 0.00 0.00 0.00 34 1008.4
20260506030005 25 128 0.0 0.0 0.00 0.00 0.00 31 1008.0
20260506024504 26 216 0.0 0.0 0.00 0.00 0.00 28 1007.9
20260506023003 27 86 0.0 0.0 0.00 0.00 0.00 26 1007.7
20260506021502 28 155 0.0 0.0 0.00 0.00 0.00 26 1007.7
20260506014506 29 66 0.0 0.0 0.00 0.00 0.00 24 1007.7
20260506013004 29 167 0.0 0.0 0.00 0.00 0.00 23 1007.5
20260506011506 29 94 0.0 0.0 0.00 0.00 0.00 24 1007.5
20260506010005 28 169 0.0 0.0 0.00 0.00 0.00 26 1007.5
20260506003005 27 169 0.0 0.0 0.00 0.00 0.00 28 1007.6
20260506001504 26 175 0.0 0.0 0.00 0.00 0.00 32 1007.8
20260506000005 25 205 0.0 0.0 0.00 0.00 0.00 36 1007.9
20260505234505 25 185 0.0 0.0 0.00 0.00 0.00 40 1008.0
20260505233007 28 161 0.0 0.0 0.00 0.00 0.00 32 1008.1
20260505231501 28 198 0.0 0.0 0.00 0.00 0.00 26 1008.3
20260505230005 28 170 0.0 0.0 0.00 0.00 0.00 27 1008.4
20260505224505 26 178 0.0 0.0 0.00 0.00 0.00 31 1008.5
20260505223005 23 144 0.0 0.0 0.00 0.00 0.00 41 1008.7
20260505221504 22 253 0.0 0.0 0.00 0.00 0.00 53 1008.9
20260505220002 22 109 0.0 0.0 0.00 0.00 0.00 52 1009.2
20260505214505 22 229 0.0 0.0 0.00 0.00 0.00 48 1009.4
20260505213000 21 230 0.0 0.0 0.00 0.00 0.00 52 1009.6
20260505211504 21 230 0.0 0.0 0.00 0.00 0.00 49 1009.9
20260505210006 21 230 0.0 0.0 0.00 0.00 0.00 51 1010.2
20260505204504 20 230 0.0 0.0 0.00 0.00 0.00 55 1010.4
20260505203000 20 230 0.0 0.0 0.00 0.00 0.00 57 1010.7
20260505201506 19 230 0.0 0.0 0.00 0.00 0.00 55 1011.0
20260505200004 18 230 0.0 0.0 0.00 0.00 0.00 53 1011.1
20260505194501 18 229 0.0 0.0 0.00 0.00 0.00 54 1011.3
20260505193006 17 134 0.0 0.0 0.00 0.00 0.00 60 1011.6
20260505191504 16 134 0.0 0.0 0.00 0.00 0.00 64 1011.9
20260505190008 16 134 0.0 0.0 0.00 0.00 0.00 67 1012.2
20260505184506 15 134 0.0 0.0 0.00 0.00 0.00 79 1012.4
20260505183004 15 134 0.0 0.0 0.00 0.00 0.00 85 1012.6
20260505181505 14 134 0.0 0.0 0.00 0.00 0.00 86 1012.8
20260505180005 13 134 0.0 0.0 0.00 0.00 0.00 84 1013.1
20260505174500 12 134 0.0 0.0 0.00 0.00 0.00 92 1013.3
20260505173001 12 134 0.0 0.0 0.00 0.00 0.00 93 1013.4
20260505171504 12 134 0.0 0.0 0.00 0.00 0.00 94 1013.5
20260505170002 11 134 0.0 0.0 0.00 0.00 0.00 94 1013.6
20260505164506 10 134 0.0 0.0 0.00 0.00 0.00 93 1013.8
20260505163001 9 134 0.0 0.0 0.00 0.00 0.00 92 1014.1
20260505153005 8 134 0.0 0.0 0.00 0.00 0.00 90 1014.4
20260505151505 8 134 0.0 0.0 0.00 0.00 0.00 87 1014.4
20260505124500 8 134 0.0 0.0 0.00 0.00 0.00 79 1013.7
20260505123000 8 134 0.0 0.0 0.00 0.00 0.00 78 1013.5